Torna al catalogo

COSMOS 1000

AttivoMilitarePO
NORAD 10776·PAYLOAD·🇷🇺 Russia

Lanciato Mar 31, 1978 da Plesetsk Cosmodrome

Loading…

Prossimi Passaggi (prossime 24 ore)

TLE

AggiornatoSource: Space-Track

Epoca: Sep 14, 2026, 02:44 UTC

1 10776U 78034A   26257.11444534  .00000039  00000-0  24942-4 0  9998
2 10776  82.9392 282.3112 0033199 256.2685 117.7403 13.75620824431597

Traccia COSMOS 1000 in tempo reale con AllMySat

Download on the App Store